Wind_Speed
12 12 12 13 13 14 14 14 15 15 15 15 14 13 14 13 12 10 8 7 6 6 5 4 4 5 6 7 8 8 9 10 10 13 16 15 15 14 16 16 14 13 13 14 14 14 14 12 10 6 5 5 5 6 5 3 2 1 1 1 1 1 2 3 3 3 1 1 1 3 3 3 4 7 7 5 3 5 5 6 6 4 10 13 14 22 24 26
12 12 13 13 13 14 14 15 15 16 16 15 15 15 15 14 12 10 8 7 6 5 5 5 5 5 6 6 8 9 10 10 11 14 13 11 16 16 17 18 16 16 14 15 16 14 13 12 11 8 5 5 5 5 5 2 3 2 2 1 2 3 3 4 4 4 2 2 1 3 3 4 5 10 11 5 3 5 4 4 6 9 14 15 20 25 24 27
13 13 13 13 14 14 14 15 15 16 16 16 16 16 15 13 11 10 8 6 6 5 5 5 5 5 5 6 7 8 8 9 11 12 10 12 18 18 17 19 18 16 11 9 13 12 9 8 10 8 6 6 5 6 6 2 2 2 3 0 4 4 3 5 6 6 5 4 1 3 3 4 5 10 10 8 8 6 5 7 8 12 18 22 27 26 26 28
13 13 13 14 14 14 15 15 16 16 17 17 17 17 15 13 11 9 8 6 5 5 5 5 5 5 4 6 7 7 5 6 8 9 10 13 18 19 18 19 18 15 10 7 11 12 8 7 8 7 5 5 6 7 5 4 3 2 4 3 4 3 2 6 7 6 6 4 2 2 4 3 6 8 10 13 10 3 8 15 15 18 23 29 31 28 28 28
13 13 14 14 14 15 15 15 16 17 17 18 18 17 15 13 12 9 7 6 4 4 4 5 5 4 4 6 7 6 1 2 4 8 9 12 17 20 18 19 19 15 11 10 13 13 9 7 8 7 3 4 4 4 4 6 4 2 5 8 6 3 3 8 7 5 5 4 3 4 3 3 6 8 11 14 7 4 13 18 19 22 26 31 33 31 29 28
13 13 14 14 15 15 15 16 16 17 18 18 17 16 15 14 12 9 7 5 4 3 4 4 4 4 5 7 6 7 4 1 5 7 8 11 16 21 19 18 19 15 13 12 13 14 11 7 8 7 3 3 2 3 5 6 4 2 5 8 9 8 7 10 7 5 5 5 4 5 4 5 7 4 10 14 5 3 13 18 18 22 26 32 34 32 31 30
13 13 14 14 15 15 15 16 16 17 18 18 17 16 15 13 12 9 7 4 3 3 4 4 4 4 5 7 6 7 8 3 5 6 7 10 15 21 21 18 18 17 15 14 15 17 13 10 10 7 2 3 3 5 7 7 6 4 4 6 10 10 11 14 12 8 7 6 4 5 6 7 8 3 6 13 8 3 9 16 18 22 28 33 34 33 32 31
12 13 14 14 15 15 15 16 16 17 18 19 18 16 15 13 12 9 6 4 3 3 4 4 3 4 5 7 5 5 8 4 6 5 6 11 16 21 24 21 18 18 17 16 17 18 14 12 11 8 3 4 4 5 8 6 5 5 6 8 7 9 12 15 14 12 10 7 5 7 5 5 8 5 3 11 12 5 9 16 18 24 31 34 35 33 32 31
13 13 13 14 15 15 15 15 16 17 18 19 18 16 14 13 11 9 6 3 2 3 3 3 3 4 5 7 5 3 6 8 7 4 6 12 17 21 23 22 21 19 18 17 16 17 15 14 14 10 5 7 7 8 8 3 3 7 10 10 8 11 16 15 14 12 12 9 8 7 3 4 7 5 2 8 13 10 12 18 19 25 33 35 35 33 32 32
14 13 13 14 15 15 15 15 15 16 17 19 18 16 14 12 10 9 5 2 2 3 3 3 3 4 5 6 5 3 8 11 8 6 6 10 16 20 21 21 21 20 19 18 18 18 18 14 13 11 8 9 7 7 6 3 4 8 11 13 12 16 19 16 13 8 8 8 9 6 3 5 6 5 2 4 14 14 15 21 21 26 32 34 34 32 31 32
15 14 14 14 15 15 15 15 15 16 17 18 18 15 13 11 10 8 5 3 1 2 3 3 4 5 6 8 7 5 10 11 9 8 6 7 12 15 18 19 20 21 20 19 19 19 18 13 8 7 6 6 7 9 8 5 8 13 13 13 12 12 15 13 9 5 6 4 9 8 5 5 6 4 2 6 17 17 18 23 23 27 31 32 33 30 29 30
15 14 14 14 15 15 15 15 15 15 16 17 18 14 11 10 9 8 6 3 1 1 3 3 4 5 6 9 10 7 10 12 12 9 7 8 9 11 16 18 18 20 20 20 19 17 17 13 7 7 7 7 8 7 8 12 14 14 9 8 9 10 9 8 5 4 6 2 10 11 4 1 4 4 3 10 20 18 19 24 24 27 30 31 31 29 28 29
15 14 14 14 15 15 16 16 15 15 15 16 17 13 10 10 9 8 6 4 2 2 3 4 4 6 6 7 8 8 10 13 13 10 9 10 11 11 15 19 19 20 19 18 17 15 15 14 11 12 13 11 8 7 12 17 15 10 4 1 6 9 5 6 6 6 5 3 13 11 1 4 5 7 5 13 23 21 20 24 25 27 29 30 30 29 28 28
14 13 14 14 15 16 16 16 16 15 15 16 16 12 9 9 8 7 6 5 3 2 2 3 4 4 6 5 6 9 11 12 12 11 10 11 13 13 15 19 21 20 19 17 14 11 10 11 13 15 17 14 12 12 14 12 7 4 3 1 3 4 4 8 3 8 5 3 14 8 1 4 5 6 8 14 23 24 22 22 23 25 27 29 29 29 28 28
14 13 13 14 15 16 16 17 16 15 14 15 15 11 8 8 8 7 6 5 3 2 2 3 2 3 5 4 7 11 13 12 11 10 9 10 13 15 15 17 20 19 17 16 13 9 6 6 10 13 16 16 12 9 7 5 3 3 2 3 3 2 4 9 2 6 3 3 12 4 1 5 4 2 10 15 21 23 22 21 23 24 25 28 28 28 28 27
13 13 13 14 15 16 16 17 16 15 14 15 13 9 6 7 8 7 6 5 3 2 1 2 2 2 2 2 8 12 13 12 10 10 9 8 11 14 14 14 16 16 15 14 12 10 7 6 9 11 14 13 6 3 3 4 4 3 2 2 3 2 4 7 3 3 3 5 6 2 0 3 3 2 9 14 19 20 20 20 23 23 23 25 27 28 28 28
13 13 13 14 15 16 16 17 16 15 14 14 11 7 5 7 8 7 5 4 3 2 2 2 1 2 2 3 7 9 11 12 10 10 9 6 10 12 13 14 14 13 12 10 9 10 9 7 6 7 7 4 0 1 3 4 4 4 3 1 2 2 4 5 4 3 4 5 4 4 2 2 1 3 9 13 17 19 19 19 22 24 23 23 25 27 28 30
14 13 13 14 15 16 16 17 16 15 14 13 9 5 5 7 8 6 4 3 2 1 2 3 2 1 2 5 5 4 9 11 9 9 7 6 9 10 11 12 11 11 9 6 6 7 6 4 2 2 3 2 1 3 1 3 2 2 3 3 4 3 3 5 5 2 5 3 3 5 5 4 3 5 9 13 16 17 17 19 21 23 24 23 24 27 29 31
14 14 14 14 15 16 16 16 16 14 13 10 7 4 4 6 7 5 3 4 4 1 1 3 6 1 1 5 4 2 6 10 9 8 6 6 9 10 10 9 9 11 8 3 3 5 5 3 1 2 4 3 3 4 4 5 3 2 2 2 5 6 6 8 7 4 7 4 4 7 6 4 5 6 9 12 15 15 13 16 19 20 21 23 26 27 28 31
16 15 15 14 14 15 16 16 15 14 12 8 5 2 3 5 4 3 5 8 8 6 4 4 6 6 4 3 3 3 6 10 11 9 6 6 10 14 12 8 7 9 6 4 3 4 5 3 3 6 7 4 3 4 4 2 1 4 4 4 5 5 8 10 6 4 7 4 4 7 5 2 5 7 8 13 15 12 11 13 17 20 20 22 25 26 29 33
16 17 16 16 15 15 16 15 14 13 10 5 3 2 1 4 2 3 7 8 5 5 8 7 8 10 5 2 4 4 5 9 12 11 7 8 12 13 11 6 5 4 3 3 3 1 4 4 7 8 6 3 3 4 3 3 3 4 3 5 7 4 8 11 6 3 5 5 4 2 5 2 4 6 8 13 14 12 14 14 16 21 21 22 25 27 30 32
17 17 17 16 15 14 14 14 13 11 7 2 1 1 2 3 2 4 7 6 6 4 5 7 9 9 5 3 5 6 5 6 9 11 9 12 13 10 9 6 4 2 1 2 2 2 0 6 10 7 3 2 4 4 3 4 4 4 3 3 6 4 4 8 5 4 1 4 4 1 4 3 3 6 7 12 11 10 16 17 18 22 22 23 25 27 30 28
18 17 16 15 13 12 13 13 11 6 2 2 3 4 4 2 3 5 5 6 7 5 4 7 8 7 3 4 8 9 8 6 7 11 12 14 14 10 9 6 3 3 1 2 4 2 2 5 5 1 1 2 5 4 3 4 4 4 3 2 6 5 1 4 5 5 3 1 2 1 2 2 3 5 6 10 10 7 13 17 18 21 23 24 26 27 30 29
18 17 16 14 11 10 12 11 7 2 3 5 6 5 3 2 3 5 4 4 5 4 3 5 5 5 2 4 9 11 9 8 8 12 16 16 15 10 8 6 3 3 1 3 6 3 6 6 4 5 0 2 5 6 3 3 4 4 5 5 8 9 5 6 5 5 4 2 1 3 3 3 2 4 4 7 9 7 11 16 16 18 21 23 24 25 28 30
17 16 15 13 10 9 10 9 3 1 3 5 5 4 3 2 2 4 2 1 3 4 1 3 4 3 5 5 9 10 6 7 9 14 18 17 15 9 4 5 4 2 3 3 5 3 9 6 4 5 4 5 6 7 4 5 3 4 6 11 12 13 9 7 5 3 4 4 3 1 3 5 2 5 5 5 7 8 9 12 14 17 20 21 22 24 26 27
15 15 14 12 9 7 7 5 2 2 3 5 5 3 1 1 2 4 2 3 1 3 0 3 3 5 8 6 9 9 2 4 8 15 20 18 16 9 3 3 2 2 5 4 2 2 5 4 2 5 7 4 5 6 5 7 3 3 5 9 11 10 9 7 4 2 1 3 4 1 2 4 4 2 5 4 7 8 8 9 12 18 20 21 23 25 26 26
13 13 12 10 9 7 5 4 3 2 3 4 4 2 0 0 3 5 1 4 1 2 1 3 2 5 8 6 12 9 1 4 8 14 21 19 17 11 3 2 1 2 4 4 1 3 2 3 4 4 4 3 4 5 5 8 6 4 5 4 5 7 7 6 5 5 4 2 3 4 3 1 3 3 4 4 7 8 9 9 10 16 20 22 24 26 27 28
11 11 10 9 8 7 5 5 5 5 3 2 3 1 1 1 4 3 2 2 1 2 2 4 4 5 6 7 14 9 2 8 7 10 21 20 16 10 4 5 5 4 4 6 3 5 2 2 4 3 2 4 5 5 7 8 5 8 8 2 3 5 6 5 5 4 2 1 4 5 2 1 4 4 2 3 7 8 11 11 10 15 20 23 25 27 29 30
10 10 10 8 7 7 5 4 5 6 5 3 2 0 2 2 3 1 3 1 2 1 1 5 5 5 5 6 11 8 3 6 3 8 19 18 15 9 3 8 7 4 3 4 4 6 3 6 7 3 3 5 7 5 8 9 7 6 6 2 1 1 0 2 4 4 2 2 4 6 2 2 3 4 1 4 6 8 11 10 10 16 22 24 26 28 30 30
9 9 9 7 6 6 4 4 6 7 7 5 2 1 1 2 1 3 1 0 2 1 1 5 5 5 7 5 4 5 3 1 2 10 13 11 15 10 2 6 5 2 1 1 3 6 7 11 10 5 7 7 5 5 8 12 11 4 5 3 2 4 3 3 2 3 3 2 5 5 4 4 1 4 2 4 5 6 7 6 8 14 21 25 27 28 30 32
9 9 9 6 4 5 4 4 6 9 9 7 3 1 1 1 2 4 1 0 1 0 2 3 2 3 7 5 1 2 1 1 2 9 7 4 8 6 0 1 1 2 3 4 3 5 6 7 6 6 11 8 3 4 4 6 6 1 2 1 2 5 3 4 4 3 2 3 6 4 3 5 0 5 4 7 8 5 5 6 7 12 19 25 28 29 30 31
9 10 7 5 4 5 4 4 8 11 10 8 3 1 1 1 1 1 1 1 1 2 2 3 2 3 5 4 2 3 1 0 1 5 4 3 3 4 2 3 3 2 3 3 3 5 4 5 4 5 8 7 4 3 4 3 3 3 1 3 4 3 4 3 3 2 1 5 3 1 3 2 3 7 6 8 9 7 8 10 11 14 20 26 29 30 31 31
10 9 6 4 4 4 6 8 11 12 10 7 3 0 2 3 0 2 1 1 1 2 2 3 3 3 6 4 1 2 2 1 3 2 2 3 3 3 3 3 5 3 0 3 1 4 3 6 4 4 5 5 7 3 2 3 1 3 3 2 3 2 3 1 3 2 2 4 3 1 1 1 3 4 4 6 7 8 10 13 16 17 20 26 30 32 32 32
8 6 4 3 2 4 7 10 11 10 8 6 2 2 2 1 2 3 1 2 2 1 1 3 3 4 5 3 3 3 2 2 3 4 2 3 3 3 4 4 4 4 2 2 1 1 1 4 3 3 3 2 5 6 5 3 2 3 4 4 3 4 3 2 3 2 3 3 3 2 1 1 1 2 4 5 5 5 7 11 15 16 17 22 27 29 31 32
5 3 3 1 3 5 8 10 10 10 8 6 2 4 1 2 2 1 2 3 2 1 1 2 5 4 2 2 3 2 3 2 2 4 2 4 4 4 4 4 5 4 3 2 2 1 2 4 7 5 3 2 2 5 6 5 0 3 2 4 1 4 5 1 2 4 2 1 3 2 2 3 3 4 5 2 1 2 2 6 11 13 15 17 22 27 30 33
2 2 1 2 4 5 7 9 9 10 9 5 3 2 3 3 2 2 2 1 2 3 3 3 3 4 1 2 2 2 2 1 2 3 1 2 3 4 3 4 6 7 5 4 2 1 1 5 7 5 4 5 6 5 5 5 2 1 1 2 4 3 6 3 1 0 3 2 3 2 2 5 3 4 6 4 2 3 3 4 8 12 15 17 22 27 30 33
2 2 3 3 3 4 7 8 8 9 7 4 3 2 4 3 3 4 1 1 1 4 6 2 1 3 3 2 2 3 2 1 1 2 1 2 2 5 5 4 6 10 10 7 3 2 3 4 6 2 4 6 5 4 3 3 4 4 1 4 3 1 4 3 0 3 4 1 3 2 2 5 2 1 5 6 4 2 2 3 5 8 14 18 22 27 30 33
1 2 4 5 3 4 7 8 8 7 4 3 1 3 3 3 4 4 3 2 0 2 4 3 3 3 4 4 3 3 3 2 2 2 2 2 3 5 6 4 7 12 16 13 4 2 3 2 7 3 4 5 3 3 2 3 2 5 4 3 2 2 1 1 1 0 1 1 3 4 4 3 2 3 4 4 4 2 2 2 3 6 13 18 21 25 28 30
3 5 6 6 5 6 8 8 8 5 2 2 1 3 2 4 7 9 11 6 1 2 3 4 3 2 3 5 3 3 4 4 4 2 2 2 3 4 7 6 6 12 18 16 6 2 3 1 5 4 3 4 5 3 1 3 3 3 2 1 1 3 3 1 1 2 1 1 2 3 5 3 5 5 4 5 7 3 4 4 5 8 14 19 21 23 25 27
5 5 6 6 6 8 10 9 7 4 1 1 3 3 2 4 8 14 16 9 5 4 4 4 4 3 3 4 3 3 3 4 5 4 2 3 3 4 5 7 3 4 12 13 6 2 1 2 3 6 4 3 3 0 3 3 1 2 1 1 1 0 1 1 0 1 2 2 2 1 3 5 6 4 6 7 7 4 6 6 6 10 16 19 20 21 23 26
6 5 4 5 7 8 9 7 4 2 0 2 2 3 4 4 7 14 16 11 10 8 5 4 5 4 4 3 3 4 3 3 4 3 2 4 4 4 5 9 7 6 7 6 4 3 2 2 2 4 5 3 5 5 5 6 5 4 4 3 3 2 2 1 2 2 1 2 3 3 2 7 5 2 4 4 4 4 6 6 7 11 16 17 18 19 21 23
6 4 3 5 8 8 6 3 0 1 1 3 5 6 9 8 7 10 11 7 9 8 5 4 4 5 4 3 4 4 4 3 2 2 3 4 5 5 5 8 13 14 10 4 3 4 3 3 1 4 4 6 10 7 3 5 5 5 3 2 3 3 4 4 3 3 0 1 1 3 1 6 5 2 4 4 4 4 5 6 8 10 12 14 16 17 18 20
7 6 6 8 9 7 2 2 3 1 2 7 9 11 11 7 5 6 5 2 4 5 3 3 4 4 4 3 3 4 4 3 3 4 3 2 4 7 8 10 15 13 7 3 2 3 3 2 0 4 5 6 8 6 3 1 4 4 1 0 3 2 3 5 4 3 2 1 1 2 2 5 5 4 3 2 2 2 2 4 6 7 8 11 13 15 16 18
10 9 7 10 11 5 1 1 1 2 4 7 8 8 9 6 5 5 5 3 2 2 2 1 1 2 2 3 4 4 3 2 3 4 1 1 2 5 4 12 16 10 5 4 5 7 5 1 2 1 5 6 6 6 6 5 3 2 2 2 1 1 3 3 1 2 1 4 4 4 3 6 5 4 4 4 3 4 4 2 4 5 6 8 11 13 15 17
8 7 5 8 10 5 3 1 2 3 4 6 6 6 7 5 5 7 6 4 6 3 2 2 2 3 3 5 5 3 2 3 2 2 2 0 3 4 4 11 14 9 8 8 10 12 6 1 4 3 1 0 1 2 2 3 3 1 1 1 3 3 3 3 2 3 2 4 4 5 5 6 5 4 6 6 5 4 4 3 3 4 5 6 9 12 14 17
4 3 2 4 7 7 7 7 5 3 3 4 4 5 6 4 6 8 4 2 8 8 5 5 4 4 6 5 6 5 5 4 3 3 3 2 4 2 3 6 6 4 5 8 13 12 4 1 4 5 4 5 4 5 4 1 1 3 3 1 2 5 3 5 4 3 4 3 2 5 6 2 6 4 5 6 5 4 4 3 3 5 5 6 9 11 14 16
3 2 1 1 3 5 9 10 6 3 4 3 1 3 6 5 5 8 7 4 8 8 6 7 7 4 3 4 6 4 5 5 5 4 2 3 3 3 3 8 15 13 7 8 8 6 3 1 4 4 4 6 6 5 3 1 3 3 5 5 4 4 3 6 4 5 6 5 3 8 6 4 4 4 3 5 4 4 5 5 5 6 6 6 9 11 14 16
3 2 3 3 2 3 3 5 5 4 6 4 2 2 6 7 5 6 6 6 9 10 6 5 9 6 3 2 5 3 4 5 5 4 3 3 3 4 6 7 11 14 9 5 2 3 5 0 1 3 4 6 3 3 3 2 4 2 3 6 7 4 4 7 6 5 8 6 5 5 5 5 4 4 2 4 5 4 4 5 4 5 6 7 9 12 15 16
5 4 3 3 1 3 2 6 8 4 4 3 1 3 6 7 7 4 4 4 7 9 7 4 6 9 6 5 5 4 3 3 3 3 2 2 3 2 4 4 4 11 10 4 2 3 4 1 2 1 3 6 2 3 4 3 2 3 5 6 7 5 4 6 4 4 5 3 3 5 6 3 3 4 4 5 4 1 2 5 5 4 6 7 10 13 15 17
6 4 1 1 0 2 4 7 6 2 3 3 3 3 5 6 7 5 5 6 3 5 7 6 4 7 6 7 7 5 3 6 4 1 2 1 2 1 1 1 3 5 7 3 2 3 3 1 2 2 2 6 4 3 2 2 4 5 8 10 11 9 4 2 2 2 2 3 2 6 6 3 3 4 4 3 4 4 5 7 6 5 5 7 10 13 15 16
5 6 4 2 1 5 6 6 3 2 3 4 3 3 4 5 7 5 4 9 8 4 3 2 1 4 5 8 8 4 1 4 5 2 3 3 0 2 1 2 3 2 5 1 1 3 3 2 2 4 4 4 5 6 6 3 4 7 10 12 11 9 5 3 3 1 3 4 3 5 7 3 4 5 4 3 5 7 8 8 7 7 7 7 10 13 14 15
4 4 5 2 1 4 5 4 4 2 1 3 3 4 3 5 9 4 2 8 12 12 7 1 3 2 5 7 6 6 11 10 8 9 7 3 2 4 5 4 5 2 1 1 1 2 3 3 1 3 3 4 5 5 4 3 6 5 5 6 6 5 4 3 4 5 4 3 4 4 2 3 5 4 4 5 7 8 10 10 9 9 10 9 10 12 13 13
Wind_Direction
1 360 358 357 355 354 353 351 348 346 345 344 341 338 335 332 331 328 321 310 303 293 292 287 260 238 227 220 219 229 233 234 230 221 220 209 199 197 192 195 196 195 187 180 183 184 186 191 193 197 221 248 279 285 309 290 208 89 106 82 335 221 208 203 196 193 163 252 150 113 141 131 128 129 135 144 117 136 136 118 125 135 144 156 165 160 162 162
0 359 357 357 356 354 353 350 348 346 345 342 339 337 334 331 329 324 318 309 298 285 281 280 264 242 231 219 218 229 235 241 242 230 217 196 193 191 188 192 196 197 189 182 183 183 184 185 185 188 219 254 283 284 307 289 182 154 132 72 245 211 212 207 203 198 191 227 152 81 116 133 143 148 145 143 152 153 134 110 113 122 133 147 157 158 163 164
360 358 357 357 356 355 352 349 348 346 344 342 339 337 335 333 329 323 316 307 297 282 271 271 264 246 231 221 220 229 240 253 255 235 205 193 191 185 186 187 188 194 192 186 182 180 182 179 180 186 216 253 287 298 305 278 191 178 151 105 243 223 248 237 227 227 235 240 207 60 111 133 146 159 155 146 159 174 175 165 145 139 143 149 156 159 162 165
358 357 356 356 355 354 351 349 348 347 345 343 341 339 338 335 331 324 313 304 293 279 264 263 263 249 227 221 224 226 250 274 256 227 200 201 191 183 185 180 180 189 190 185 182 184 187 187 191 193 217 258 288 297 293 252 216 156 164 201 233 199 272 258 243 246 248 237 210 121 112 131 154 168 164 146 146 205 206 184 171 163 158 156 159 161 163 168
355 355 355 354 353 351 349 348 347 347 345 344 342 340 340 338 333 326 314 301 287 276 255 258 259 251 225 221 226 213 208 347 221 202 196 200 192 186 182 175 177 184 186 182 181 183 185 198 203 200 235 271 293 296 278 253 215 172 225 231 238 208 259 276 265 259 244 200 182 156 136 152 159 173 179 167 156 219 207 190 179 174 169 164 163 163 165 172
349 350 351 351 349 348 347 347 346 346 345 345 344 341 342 340 336 330 317 297 279 268 245 248 250 245 220 220 226 201 189 121 174 181 185 186 188 187 178 172 175 178 185 183 182 182 178 195 205 198 228 269 263 250 276 275 222 242 261 238 257 245 241 276 271 256 236 189 180 171 165 154 152 181 195 192 185 184 204 194 181 178 174 170 168 166 168 175
342 343 346 346 344 344 344 344 344 345 344 345 345 342 343 343 341 335 320 297 274 257 238 238 243 240 217 223 223 205 222 231 153 162 173 170 180 186 177 172 174 178 184 184 186 184 178 187 202 203 226 279 254 243 281 287 222 237 284 261 281 260 243 270 270 256 244 217 198 164 157 160 163 178 200 203 198 138 194 193 183 178 173 170 170 168 171 176
336 336 339 342 340 340 341 341 342 343 343 345 345 343 343 344 345 341 327 305 270 246 232 226 236 231 215 218 214 221 236 211 146 154 174 167 174 186 182 177 181 184 185 188 190 187 186 190 202 210 217 259 262 264 290 297 219 214 258 267 286 267 263 281 276 259 243 224 194 166 153 167 178 172 193 211 200 161 176 184 181 175 171 171 172 171 173 176
333 331 333 337 338 337 338 338 338 341 342 344 345 342 342 344 347 345 333 312 264 243 226 220 235 225 217 214 209 233 207 170 149 148 172 173 176 184 185 183 187 190 188 192 195 194 199 202 208 213 224 265 278 283 286 295 231 219 240 265 282 280 289 290 277 259 236 216 188 175 132 141 179 183 247 229 197 171 169 177 178 174 172 173 174 175 175 177
332 329 329 332 335 335 336 335 335 339 340 342 344 342 341 343 347 346 337 322 255 234 213 213 230 220 216 208 200 197 177 167 156 146 155 174 180 186 187 187 191 195 192 194 199 202 207 211 218 226 254 276 281 291 283 230 256 263 263 278 280 286 297 289 275 258 216 207 194 175 98 124 159 176 272 231 185 171 163 171 178 176 175 176 177 178 180 181
329 327 326 328 333 334 334 334 332 335 339 340 342 341 340 342 347 346 340 331 259 217 207 213 226 222 215 211 205 180 169 168 163 158 155 169 184 191 190 189 195 201 198 198 202 206 212 215 225 241 259 280 299 309 301 280 283 286 291 296 289 297 305 293 283 231 174 188 195 164 91 112 136 173 251 175 172 170 162 167 175 178 178 178 179 181 183 186
326 325 323 324 329 333 334 332 330 332 337 339 340 341 339 343 348 346 341 331 291 231 218 213 219 218 218 221 212 177 157 162 165 170 176 180 188 199 199 195 200 208 207 205 207 211 216 216 218 241 268 307 319 319 315 320 312 293 294 306 305 330 331 322 348 175 159 139 177 154 75 70 164 204 223 163 168 167 161 166 173 179 180 179 180 182 184 188
323 322 321 320 324 331 332 331 328 329 336 338 338 340 340 346 351 351 346 337 319 268 227 215 218 214 218 224 206 174 158 162 170 179 187 194 197 203 207 206 209 215 215 213 214 217 223 225 227 249 279 302 307 304 306 314 316 298 293 329 316 343 338 329 13 134 127 117 170 154 32 280 232 216 180 161 169 164 159 167 174 179 181 182 183 183 185 189
320 320 319 318 321 327 329 329 326 325 334 337 336 336 342 349 351 352 349 345 337 294 243 221 219 214 217 207 185 183 175 170 176 183 190 197 201 204 209 211 214 218 220 220 219 225 235 243 248 261 275 280 287 303 310 315 321 299 298 65 0 354 293 310 4 136 101 162 177 150 12 258 274 231 188 168 172 167 159 167 176 179 182 184 185 186 186 189
318 318 318 317 319 323 325 326 323 323 331 335 333 332 339 352 353 353 347 346 348 309 256 221 216 220 237 215 182 189 188 183 180 180 192 202 204 207 209 211 213 215 220 222 219 224 233 253 258 262 274 282 291 305 316 330 342 342 328 325 352 21 280 308 321 157 89 166 189 152 96 247 313 223 178 171 174 168 159 166 176 178 181 184 187 189 189 191
317 317 318 318 318 319 321 322 319 320 329 333 330 327 339 352 350 350 343 340 342 314 225 216 226 201 251 218 185 193 196 192 184 181 189 206 213 210 208 209 211 211 215 220 220 222 224 248 265 265 276 287 294 291 325 344 338 359 34 297 311 348 314 319 325 204 109 117 201 231 177 252 344 114 164 171 176 165 153 161 173 175 179 184 187 190 192 194
315 316 317 318 317 317 318 318 316 318 328 332 326 322 329 334 338 342 337 333 326 301 227 230 257 192 214 188 180 198 203 193 186 190 190 196 211 211 207 203 204 207 210 215 217 223 233 248 267 271 275 288 67 93 0 340 316 334 12 1 275 284 308 306 312 265 154 129 200 225 231 256 39 140 164 171 177 167 151 153 169 177 179 183 187 190 193 196
312 314 316 317 316 317 317 315 314 317 328 331 321 313 311 319 327 320 310 322 323 316 255 234 194 146 213 191 170 190 205 199 190 193 195 193 197 201 200 193 190 193 194 202 208 211 226 242 254 301 300 287 167 124 121 245 233 41 29 359 313 291 275 265 286 237 174 190 200 189 234 239 143 143 166 173 175 172 163 152 159 177 183 185 188 191 195 198
309 310 312 314 316 318 317 313 312 317 329 331 317 306 309 317 315 296 282 279 251 186 26 201 180 159 240 188 177 186 204 204 198 192 194 192 182 174 171 176 179 175 161 149 206 196 187 225 284 294 280 254 208 181 188 209 178 58 0 320 303 302 287 267 269 225 188 216 215 190 222 219 159 160 170 174 173 173 175 160 155 168 181 190 194 194 198 201
306 306 306 309 312 315 315 312 312 319 328 328 314 302 321 331 315 291 303 284 257 239 256 233 226 270 290 176 177 202 197 197 200 197 192 187 171 157 154 159 166 166 155 141 181 191 172 207 252 232 241 236 205 209 218 241 297 332 332 315 292 285 288 284 282 241 191 191 247 207 205 190 162 180 174 173 175 171 175 172 165 168 178 193 200 198 200 204
306 304 303 305 307 311 313 310 312 320 325 315 288 253 321 2 21 333 324 307 293 257 247 247 253 265 267 163 137 147 170 184 195 197 187 179 164 153 162 165 135 162 209 158 153 141 149 210 240 234 238 225 212 216 237 293 304 305 314 320 306 266 272 284 292 282 193 181 290 225 182 201 175 187 178 172 179 182 183 182 179 178 180 190 198 200 202 205
307 304 304 305 305 308 308 307 313 321 327 299 216 145 63 27 13 347 340 314 314 304 238 231 245 254 243 179 153 146 151 168 194 200 183 171 166 162 175 164 113 166 221 120 130 36 60 249 254 246 246 246 246 235 246 273 275 286 287 315 302 270 280 291 304 347 104 182 291 316 168 222 196 188 191 184 186 192 195 195 192 188 184 188 195 198 202 204
306 303 304 305 305 306 302 306 312 322 13 110 126 103 82 26 327 324 325 297 300 301 235 224 242 257 239 177 173 170 165 164 191 198 181 172 176 177 171 152 118 150 117 113 150 136 246 252 269 264 211 269 285 276 274 294 283 258 252 270 280 273 289 287 304 6 35 161 236 145 158 237 184 178 202 202 196 191 199 205 204 200 196 196 198 199 201 203
303 301 303 305 306 302 299 303 305 328 80 97 99 84 54 329 296 298 291 281 299 302 247 225 250 262 213 167 177 175 172 175 185 186 182 179 176 175 175 165 132 136 175 149 146 187 247 253 334 6 3 204 267 284 273 276 283 249 224 220 253 265 235 219 273 334 6 4 147 107 23 315 189 181 214 206 202 200 194 199 203 207 211 208 203 202 203 204
300 299 300 304 302 297 298 298 277 155 101 94 83 62 19 310 278 295 305 320 298 304 288 214 243 224 162 161 182 178 175 190 192 184 185 187 177 162 173 174 143 173 207 147 133 223 262 272 320 312 273 197 219 264 226 200 263 299 236 215 228 255 255 235 261 326 4 339 280 92 23 310 260 195 214 195 201 209 188 192 200 203 211 214 208 206 205 205
299 297 297 300 296 287 294 292 208 133 118 105 77 50 21 350 287 280 327 46 310 285 351 186 212 176 166 173 177 166 152 219 204 188 185 192 188 168 136 163 147 202 188 147 139 232 261 275 265 252 262 229 214 259 224 173 166 303 245 207 215 240 262 262 221 164 276 280 282 45 120 274 308 234 224 198 205 219 199 196 204 202 205 210 211 210 206 204
300 296 294 294 291 280 283 279 230 168 138 116 70 45 273 39 298 277 343 43 330 236 154 182 186 172 176 175 170 159 95 190 181 186 187 191 194 187 187 194 153 203 176 125 175 241 211 262 286 254 256 234 226 262 223 161 143 244 241 162 192 229 244 243 184 177 232 244 328 2 116 206 303 282 257 210 208 229 225 216 208 205 206 207 210 211 208 205
302 295 290 288 289 278 275 267 231 195 169 130 75 67 198 222 294 291 82 59 226 179 150 186 174 173 177 173 179 177 133 160 153 187 193 189 189 188 203 209 177 194 191 134 191 259 179 205 267 248 246 240 229 229 191 162 164 247 256 184 189 233 226 204 169 186 236 43 322 303 125 116 277 277 299 196 211 235 235 227 214 208 208 208 210 211 209 208
305 297 288 281 280 275 273 256 214 184 174 155 107 217 225 256 298 17 91 81 193 171 161 172 167 181 174 159 188 202 169 163 142 179 189 187 190 192 210 218 196 189 215 157 198 261 252 245 261 251 253 247 238 222 166 169 205 251 286 297 94 36 193 137 136 149 66 28 282 268 183 134 279 279 134 171 218 237 232 228 218 211 210 209 210 211 210 209
310 297 286 276 270 266 263 242 205 181 174 169 160 242 265 282 5 78 76 18 152 205 140 159 177 182 158 135 200 232 206 207 107 148 171 182 191 201 219 218 199 151 295 332 234 256 267 269 271 243 230 233 248 245 175 187 219 264 345 324 1 19 35 44 69 106 68 306 271 259 190 135 312 280 202 192 222 215 209 218 216 211 209 209 210 211 210 209
309 292 282 274 261 250 252 238 200 183 181 187 193 222 270 311 66 95 157 199 132 188 98 147 203 155 148 137 173 229 188 311 114 138 158 163 182 209 234 185 182 77 356 342 297 292 303 283 270 239 234 225 256 281 212 202 220 214 8 8 9 343 4 22 358 41 90 257 273 257 170 116 133 260 230 229 240 214 186 198 202 204 205 207 208 209 209 207
300 286 281 269 250 239 233 207 189 186 190 198 208 213 157 64 24 150 206 337 344 207 166 164 189 146 139 119 147 195 148 235 165 139 155 135 149 204 188 180 181 76 347 293 288 325 312 265 267 279 255 209 179 288 304 345 47 118 127 49 51 345 356 6 321 353 195 249 273 186 135 111 230 249 241 237 243 232 210 204 202 201 202 204 206 207 207 206
293 285 285 265 244 224 211 192 183 182 188 199 219 254 100 79 272 212 207 323 218 207 191 138 112 120 128 120 217 207 137 212 201 148 133 128 142 223 242 214 169 123 271 220 287 348 317 295 303 308 282 200 169 193 285 316 39 155 186 109 104 90 45 325 282 319 268 260 277 221 203 296 282 270 233 225 242 240 230 222 214 209 207 206 207 206 205 204
293 294 292 269 226 208 202 186 177 176 185 198 189 65 75 61 227 194 201 243 200 175 161 124 98 85 113 159 230 188 150 241 184 135 99 124 144 226 253 235 174 126 118 167 250 130 101 309 269 223 261 179 174 197 189 169 167 198 175 133 138 146 140 232 240 225 252 277 295 286 237 203 237 256 225 228 261 266 253 235 219 216 217 211 206 202 202 203
305 315 307 259 181 196 188 174 172 173 183 190 113 75 142 239 247 199 219 233 212 142 59 80 99 92 80 259 267 206 178 222 161 123 128 156 168 202 212 216 195 153 129 156 237 179 126 263 250 244 248 194 216 217 164 130 177 263 154 110 164 182 150 158 189 182 201 318 294 277 230 215 218 262 275 284 305 325 295 215 201 204 210 204 198 198 201 203
340 25 37 120 169 188 175 166 166 170 181 169 90 88 208 227 223 187 197 187 161 145 100 48 82 113 221 278 295 260 181 189 154 123 173 183 183 205 205 217 195 168 157 167 215 179 123 268 273 297 282 232 226 220 176 163 199 273 119 173 232 190 127 111 238 287 67 66 278 280 282 295 328 310 310 359 30 7 40 165 184 190 193 192 195 199 202 203
6 52 86 111 137 166 167 165 159 167 173 127 95 218 223 238 213 193 221 348 159 139 118 113 182 157 180 207 252 236 159 156 166 123 219 233 221 207 208 235 193 179 186 184 210 209 159 277 287 276 270 263 236 213 211 193 151 117 190 222 235 39 73 98 76 353 44 86 284 317 292 294 357 324 316 351 343 320 56 145 175 179 186 191 198 203 205 206
15 88 107 111 106 127 152 161 160 164 149 90 8 256 222 240 225 206 257 313 33 109 119 161 207 165 169 187 224 207 145 167 205 159 174 228 261 202 180 213 197 190 195 187 202 261 140 293 295 243 232 295 339 74 22 328 90 129 171 184 112 78 1 16 126 12 40 317 293 311 308 276 198 220 283 313 282 249 136 162 174 181 194 200 205 207 208 208
112 102 88 92 102 118 137 154 161 154 93 90 245 265 238 253 261 261 270 276 236 162 165 183 181 125 167 182 184 168 152 169 184 169 155 183 250 208 175 198 209 198 192 177 180 255 128 115 292 270 244 309 353 51 82 305 348 86 129 11 45 146 167 185 145 157 182 224 274 311 330 291 228 219 201 221 245 213 157 193 207 205 208 209 211 210 208 208
124 96 71 91 112 127 143 155 157 139 77 188 216 252 276 279 280 280 278 262 210 198 196 181 165 157 185 186 177 166 161 162 162 167 189 188 227 259 205 190 184 180 177 168 170 224 132 120 260 286 313 346 329 256 169 191 150 108 189 278 307 193 154 174 131 130 145 155 186 281 315 276 250 214 185 209 235 206 182 201 216 219 217 217 218 215 212 211
118 81 71 110 120 135 149 155 157 133 105 243 226 239 276 291 286 288 285 255 220 225 219 172 168 184 176 170 195 181 148 151 161 162 200 197 210 266 224 191 165 118 134 159 189 203 188 148 197 294 329 325 271 246 178 174 166 157 186 195 180 167 133 127 299 309 107 141 173 157 257 272 264 215 208 221 214 207 208 203 213 226 226 225 223 219 219 218
102 83 112 127 129 146 152 152 271 80 142 255 279 275 276 282 277 287 295 254 214 225 231 197 189 193 172 168 196 171 132 138 170 168 200 212 206 214 224 192 166 146 137 154 198 187 163 122 163 276 276 261 275 280 181 173 160 143 161 165 141 131 127 146 223 264 141 104 148 125 209 271 269 251 256 245 213 227 237 220 225 238 236 231 225 221 223 223
84 99 133 139 146 159 136 12 331 1 232 264 285 284 274 268 262 282 302 272 202 206 210 200 189 187 185 170 165 155 135 134 177 197 213 237 226 231 234 192 163 149 143 151 165 173 166 117 221 290 296 290 301 328 11 98 111 107 26 120 138 152 152 160 181 180 166 196 143 105 277 271 277 294 287 241 217 270 294 250 248 252 243 233 225 221 222 221
89 95 123 149 165 183 26 25 295 309 280 282 292 288 278 252 240 270 286 301 303 181 171 221 171 163 169 119 116 149 157 125 181 204 189 136 231 291 258 184 170 159 171 187 165 165 177 154 105 7 337 338 343 355 356 351 36 90 282 298 261 202 108 106 129 111 222 228 157 137 250 257 271 322 22 49 49 26 10 330 281 264 246 234 223 219 219 216
98 87 107 158 185 227 301 262 260 285 293 309 307 300 308 281 261 280 271 300 359 43 99 359 42 90 76 85 81 70 91 96 142 174 57 122 241 344 53 159 172 183 210 211 171 159 163 145 128 126 168 294 333 300 285 304 324 338 262 314 312 275 156 131 131 116 220 238 144 149 225 261 293 349 31 31 29 13 354 355 316 281 257 241 227 219 216 213
105 95 95 177 203 241 272 272 281 281 286 326 318 309 338 330 308 321 315 1 10 25 57 27 26 63 54 70 80 43 28 45 65 94 57 345 262 301 75 104 86 99 177 172 157 150 117 84 159 145 160 177 197 222 227 245 314 317 313 309 278 254 184 121 112 150 188 185 185 215 209 257 313 333 10 356 354 333 303 308 307 292 273 248 232 221 218 214
80 120 117 140 207 250 273 272 273 274 283 317 320 315 338 325 318 352 14 29 11 20 49 31 21 49 48 72 100 56 3 20 37 38 8 314 279 286 358 46 43 44 92 128 142 143 88 9 187 155 190 209 201 217 252 258 211 264 315 317 290 264 171 136 166 201 161 136 254 251 190 156 272 292 355 336 318 294 295 313 308 296 287 259 235 221 217 213
66 126 125 103 173 226 270 285 286 286 283 273 229 318 348 351 359 6 355 357 15 24 43 31 17 31 44 80 111 86 5 28 30 359 328 326 328 344 360 24 35 32 48 83 86 122 111 47 219 151 249 258 219 227 251 206 201 236 335 322 315 298 208 193 215 202 158 162 241 243 157 157 242 283 322 300 284 273 305 340 332 306 293 263 237 222 216 214
77 112 121 99 171 212 254 303 306 300 290 285 321 359 355 1 4 350 332 356 15 16 41 67 9 8 30 58 94 95 52 74 44 339 295 341 344 3 15 356 12 26 37 50 5 73 111 299 281 144 298 302 297 243 228 159 116 31 2 344 349 336 233 215 248 224 168 172 209 158 135 157 257 285 292 300 312 308 13 20 8 329 298 266 245 230 221 217
77 87 57 70 6 319 318 320 325 343 337 352 31 357 352 10 358 338 4 37 32 353 33 77 21 353 26 54 73 96 138 152 130 24 194 138 359 6 73 285 274 5 25 47 2 26 97 274 284 102 4 311 311 321 328 75 81 42 13 1 1 356 354 32 323 267 118 79 141 137 106 54 350 322 311 338 19 47 38 22 10 344 311 278 259 244 233 225
72 67 39 53 18 350 342 334 350 65 13 4 18 342 350 6 343 320 21 44 51 26 6 120 126 359 21 42 60 71 273 197 179 267 232 167 278 264 210 197 197 353 4 28 358 4 69 57 347 69 60 296 304 348 344 3 66 45 14 0 354 354 6 11 322 314 118 135 136 89 74 40 317 319 328 5 36 41 26 14 7 355 336 300 275 262 251 239
64 72 45 55 34 359 357 339 353 59 36 337 340 336 324 328 333 332 86 32 31 34 22 195 167 69 38 36 28 337 317 298 278 296 297 264 266 256 245 224 187 179 321 111 57 352 97 95 33 72 69 277 287 336 335 25 51 15 341 342 338 348 359 337 339 6 31 116 118 93 121 242 279 312 341 2 23 27 19 16 6 349 344 328 300 283 269 255
Height
1528 1527 1526 1525 1524 1523 1521 1520 1519 1518 1517 1516 1515 1514 1513 1512 1511 1511 1510 1510 1509 1509 1509 1508 1508 1508 1508 1508 1508 1508 1507 1507 1507 1507 1507 1507 1510 1511 1512 1513 1514 1515 1515 1516 1516 1516 1517 1517 1518 1519 1520 1519 1519 1519 1519 1519 1520 1521 1523 1527 1527 1526 1524 1518 1518 1518 1517 1517 1517 1517 1518 1518 1519 1521 1519 1516 1517 1518 1518 1519 1520 1520 1521 1523 1525 1526 1528 1530
1528 1527 1525 1525 1523 1522 1521 1520 1519 1517 1516 1515 1514 1513 1512 1511 1510 1510 1509 1509 1509 1508 1508 1508 1508 1507 1507 1507 1507 1507 1507 1506 1506 1506 1505 1507 1509 1510 1511 1512 1514 1514 1515 1515 1515 1516 1516 1517 1518 1519 1520 1520 1519 1519 1519 1519 1520 1521 1524 1527 1526 1522 1518 1514 1514 1514 1514 1515 1515 1516 1517 1518 1519 1520 1520 1518 1518 1519 1519 1519 1520 1521 1522 1524 1525 1527 1530 1531
1528 1527 1525 1524 1523 1522 1521 1520 1518 1517 1516 1515 1513 1512 1511 1510 1510 1509 1508 1508 1508 1508 1507 1507 1507 1507 1507 1507 1507 1507 1506 1506 1506 1504 1505 1506 1507 1509 1510 1512 1513 1514 1515 1515 1516 1516 1517 1518 1519 1520 1520 1520 1519 1519 1518 1518 1519 1519 1522 1527 1522 1516 1514 1512 1512 1512 1512 1513 1513 1515 1516 1517 1518 1518 1520 1520 1520 1520 1519 1519 1519 1521 1522 1524 1526 1528 1530 1532
1528 1526 1525 1524 1523 1522 1520 1519 1518 1517 1515 1514 1513 1511 1511 1510 1509 1508 1507 1507 1507 1507 1507 1506 1506 1506 1506 1506 1506 1507 1506 1506 1504 1503 1504 1505 1507 1508 1510 1511 1513 1515 1516 1516 1517 1518 1518 1519 1520 1520 1521 1521 1519 1519 1518 1517 1519 1519 1520 1522 1516 1513 1514 1511 1510 1510 1511 1511 1512 1513 1514 1516 1517 1518 1519 1519 1521 1522 1519 1518 1518 1519 1521 1523 1525 1528 1530 1532
1528 1526 1525 1524 1523 1521 1520 1519 1517 1516 1515 1513 1512 1511 1510 1509 1508 1507 1507 1506 1506 1506 1506 1506 1506 1506 1506 1506 1506 1506 1507 1508 1504 1502 1504 1505 1506 1508 1510 1511 1513 1515 1516 1516 1517 1518 1519 1520 1520 1521 1521 1521 1520 1520 1518 1516 1517 1518 1516 1514 1512 1512 1513 1509 1508 1510 1509 1510 1511 1513 1513 1514 1516 1517 1518 1518 1520 1520 1517 1517 1518 1519 1521 1522 1524 1527 1530 1532
1527 1526 1525 1524 1522 1521 1520 1518 1517 1516 1514 1513 1511 1510 1509 1508 1507 1506 1506 1506 1505 1505 1505 1505 1505 1505 1505 1505 1506 1506 1507 1507 1503 1502 1504 1504 1506 1508 1510 1512 1513 1515 1516 1516 1517 1518 1519 1520 1521 1521 1522 1521 1521 1520 1518 1516 1517 1518 1514 1510 1510 1511 1510 1507 1508 1509 1508 1509 1510 1511 1512 1513 1515 1516 1517 1517 1517 1517 1516 1517 1519 1520 1522 1523 1525 1527 1529 1531
1527 1526 1525 1523 1522 1521 1519 1518 1516 1515 1514 1512 1511 1509 1508 1507 1506 1506 1505 1505 1505 1505 1505 1505 1505 1505 1505 1505 1506 1506 1505 1504 1503 1503 1504 1504 1506 1508 1510 1512 1513 1514 1515 1516 1517 1518 1519 1520 1520 1521 1522 1521 1521 1519 1518 1517 1516 1518 1515 1509 1508 1509 1508 1506 1506 1507 1508 1508 1509 1510 1511 1512 1514 1515 1516 1516 1516 1516 1516 1517 1519 1521 1523 1525 1526 1527 1529 1531
1527 1526 1524 1523 1522 1521 1519 1518 1516 1515 1513 1512 1510 1509 1508 1507 1506 1505 1504 1504 1504 1504 1504 1504 1505 1505 1505 1505 1505 1506 1505 1504 1504 1504 1504 1505 1506 1508 1510 1511 1513 1514 1515 1516 1516 1518 1519 1520 1520 1521 1522 1521 1520 1518 1517 1518 1517 1517 1514 1508 1507 1506 1505 1504 1505 1506 1506 1507 1508 1509 1511 1512 1513 1514 1514 1514 1516 1516 1516 1517 1519 1521 1523 1525 1527 1528 1530 1532
1526 1525 1524 1523 1521 1520 1519 1517 1516 1514 1513 1511 1510 1509 1507 1506 1506 1505 1504 1504 1504 1504 1504 1504 1504 1504 1505 1505 1505 1505 1504 1504 1504 1504 1504 1505 1506 1508 1510 1511 1512 1513 1515 1516 1517 1518 1519 1519 1520 1520 1521 1520 1519 1518 1517 1519 1518 1513 1510 1507 1506 1504 1503 1503 1502 1503 1505 1506 1507 1509 1511 1512 1513 1514 1513 1512 1515 1516 1517 1518 1519 1521 1523 1525 1527 1529 1530 1532
1525 1524 1523 1522 1521 1520 1518 1517 1515 1514 1512 1511 1509 1508 1507 1506 1505 1504 1504 1503 1503 1503 1503 1504 1504 1504 1504 1504 1505 1505 1503 1504 1505 1505 1505 1505 1506 1508 1509 1511 1512 1513 1514 1516 1516 1517 1518 1519 1520 1520 1521 1520 1519 1518 1517 1519 1516 1511 1509 1507 1505 1504 1502 1500 1500 1501 1503 1505 1506 1508 1511 1512 1512 1514 1514 1512 1514 1516 1516 1518 1519 1521 1523 1524 1527 1529 1531 1532
1524 1523 1522 1521 1520 1519 1517 1516 1515 1513 1512 1510 1509 1508 1507 1506 1505 1504 1504 1503 1503 1503 1503 1503 1503 1504 1504 1504 1504 1504 1503 1504 1505 1505 1506 1506 1507 1508 1509 1511 1512 1513 1514 1515 1516 1517 1518 1520 1521 1521 1522 1520 1518 1517 1515 1515 1514 1510 1509 1507 1504 1503 1501 1498 1498 1501 1502 1504 1505 1507 1510 1512 1513 1514 1513 1511 1513 1515 1516 1518 1519 1521 1523 1525 1527 1529 1531 1533
1523 1522 1521 1520 1519 1518 1517 1515 1514 1513 1511 1510 1508 1507 1506 1505 1504 1504 1503 1503 1503 1503 1503 1503 1503 1503 1503 1503 1503 1503 1503 1504 1505 1506 1507 1507 1508 1509 1510 1512 1513 1514 1514 1516 1517 1518 1519 1520 1521 1521 1521 1520 1519 1518 1515 1513 1513 1510 1510 1510 1506 1502 1501 1498 1499 1501 1502 1505 1505 1506 1512 1514 1513 1513 1511 1511 1513 1514 1516 1518 1519 1521 1523 1525 1527 1529 1531 1533
1522 1521 1520 1519 1518 1517 1516 1514 1513 1512 1511 1510 1508 1507 1506 1505 1504 1504 1503 1503 1503 1503 1502 1502 1502 1503 1503 1503 1502 1502 1503 1504 1505 1506 1507 1508 1509 1510 1511 1512 1513 1514 1516 1517 1518 1519 1520 1521 1521 1521 1520 1520 1519 1518 1515 1512 1512 1511 1510 1512 1511 1509 1506 1501 1501 1502 1503 1506 1504 1507 1517 1516 1511 1511 1511 1512 1513 1514 1516 1517 1519 1521 1523 1525 1528 1529 1531 1533
1521 1520 1519 1518 1517 1516 1515 1513 1512 1511 1510 1509 1508 1506 1505 1505 1504 1503 1503 1503 1502 1502 1502 1502 1502 1502 1503 1502 1501 1502 1503 1504 1505 1506 1506 1507 1509 1510 1511 1512 1513 1514 1516 1517 1519 1520 1521 1521 1522 1521 1520 1520 1518 1516 1515 1513 1512 1512 1511 1513 1518 1519 1512 1502 1502 1503 1504 1507 1504 1508 1519 1516 1509 1509 1510 1512 1513 1513 1515 1517 1518 1520 1522 1525 1527 1530 1531 1533
1520 1519 1518 1517 1516 1515 1514 1513 1511 1510 1510 1508 1507 1506 1505 1505 1504 1503 1503 1503 1502 1502 1502 1502 1502 1503 1503 1501 1501 1502 1503 1504 1505 1506 1507 1507 1508 1509 1510 1512 1513 1515 1517 1518 1519 1521 1521 1522 1522 1521 1519 1518 1518 1518 1518 1516 1514 1514 1516 1519 1522 1523 1516 1505 1502 1503 1505 1508 1506 1509 1517 1514 1509 1510 1510 1512 1513 1514 1515 1517 1518 1520 1522 1525 1527 1530 1532 1533
1519 1518 1517 1516 1515 1514 1513 1512 1510 1509 1509 1507 1506 1505 1505 1504 1504 1504 1503 1502 1502 1502 1502 1502 1502 1503 1503 1501 1501 1502 1503 1504 1505 1506 1507 1507 1508 1509 1510 1512 1514 1515 1517 1518 1519 1520 1521 1521 1521 1520 1518 1517 1519 1520 1522 1522 1520 1519 1521 1523 1523 1522 1520 1511 1505 1503 1504 1507 1509 1511 1515 1513 1511 1510 1510 1512 1513 1514 1515 1517 1518 1519 1522 1525 1527 1529 1531 1533
1518 1517 1516 1515 1514 1513 1512 1510 1509 1508 1508 1507 1505 1505 1504 1504 1504 1503 1503 1502 1502 1502 1502 1502 1502 1503 1502 1500 1501 1502 1503 1504 1505 1506 1506 1507 1508 1509 1511 1512 1513 1515 1517 1518 1519 1520 1521 1521 1521 1520 1519 1518 1519 1521 1528 1531 1526 1523 1523 1524 1523 1522 1522 1517 1509 1505 1504 1507 1510 1512 1513 1514 1512 1511 1511 1512 1513 1514 1515 1517 1517 1518 1521 1524 1527 1529 1530 1532
1516 1516 1515 1514 1513 1512 1511 1509 1508 1508 1507 1506 1505 1504 1504 1504 1503 1503 1502 1502 1502 1502 1502 1502 1502 1504 1503 1500 1501 1502 1502 1504 1505 1506 1506 1507 1507 1509 1511 1512 1514 1515 1517 1518 1519 1519 1521 1521 1520 1522 1521 1520 1520 1523 1531 1533 1527 1527 1527 1527 1527 1523 1521 1519 1513 1507 1505 1507 1510 1513 1514 1514 1512 1511 1511 1512 1513 1514 1515 1517 1519 1519 1521 1523 1525 1528 1529 1530
1515 1514 1514 1513 1512 1511 1509 1508 1507 1507 1506 1505 1504 1504 1503 1503 1503 1502 1502 1502 1501 1501 1501 1501 1501 1502 1503 1500 1500 1502 1502 1503 1504 1505 1506 1506 1507 1509 1511 1513 1514 1515 1516 1518 1519 1519 1520 1521 1523 1525 1524 1522 1521 1522 1526 1526 1524 1526 1527 1528 1529 1527 1520 1514 1510 1505 1503 1507 1509 1511 1512 1511 1512 1512 1511 1512 1512 1513 1515 1518 1521 1521 1521 1522 1524 1526 1528 1529
1513 1513 1512 1511 1510 1509 1508 1507 1506 1506 1505 1504 1504 1503 1503 1503 1502 1502 1501 1500 1500 1499 1499 1500 1499 1500 1500 1499 1500 1501 1502 1503 1504 1505 1506 1506 1507 1509 1511 1513 1514 1515 1516 1518 1520 1518 1519 1524 1526 1524 1522 1520 1521 1520 1521 1521 1522 1523 1525 1526 1526 1528 1521 1509 1506 1502 1500 1507 1508 1507 1509 1509 1510 1511 1510 1511 1512 1512 1514 1516 1519 1521 1521 1521 1523 1525 1526 1527
1512 1511 1510 1510 1509 1508 1507 1506 1505 1505 1504 1503 1503 1503 1503 1503 1503 1503 1501 1498 1498 1498 1498 1498 1499 1498 1498 1499 1500 1500 1501 1502 1503 1505 1506 1507 1508 1509 1512 1513 1514 1517 1517 1517 1519 1518 1520 1526 1523 1518 1518 1519 1519 1519 1519 1520 1521 1522 1525 1526 1525 1525 1519 1507 1504 1502 1498 1505 1507 1505 1509 1510 1510 1510 1509 1509 1510 1511 1511 1513 1516 1518 1521 1521 1522 1524 1524 1526
1510 1509 1509 1508 1507 1507 1506 1505 1505 1504 1503 1503 1503 1503 1503 1503 1503 1503 1502 1500 1497 1497 1497 1497 1498 1498 1498 1499 1499 1500 1501 1502 1503 1505 1505 1507 1508 1510 1511 1513 1515 1518 1517 1517 1520 1522 1525 1524 1517 1515 1516 1517 1518 1518 1519 1520 1521 1523 1524 1527 1526 1520 1516 1508 1503 1502 1500 1505 1508 1507 1509 1511 1509 1508 1508 1508 1509 1509 1509 1510 1513 1515 1518 1520 1520 1522 1523 1525
1509 1507 1507 1506 1506 1506 1504 1504 1504 1503 1503 1502 1503 1503 1503 1503 1503 1503 1503 1502 1498 1496 1496 1497 1497 1497 1497 1498 1498 1499 1500 1501 1503 1504 1505 1507 1508 1509 1511 1513 1516 1517 1518 1519 1522 1527 1529 1521 1513 1514 1515 1517 1518 1517 1519 1520 1521 1523 1523 1528 1525 1516 1518 1515 1506 1504 1503 1505 1508 1508 1509 1511 1510 1508 1508 1508 1508 1509 1510 1510 1511 1513 1515 1516 1518 1519 1521 1522
1506 1505 1505 1505 1504 1504 1503 1503 1503 1503 1503 1502 1503 1503 1503 1503 1503 1503 1503 1502 1500 1496 1495 1496 1496 1496 1497 1497 1498 1499 1500 1501 1502 1503 1505 1506 1507 1510 1511 1512 1515 1518 1519 1519 1521 1525 1523 1515 1512 1514 1515 1517 1519 1517 1519 1522 1522 1521 1521 1523 1520 1512 1515 1516 1508 1506 1506 1506 1506 1508 1510 1510 1510 1512 1509 1508 1508 1508 1509 1510 1510 1512 1513 1515 1517 1518 1519 1520
1504 1504 1504 1503 1503 1503 1502 1502 1502 1502 1502 1502 1503 1503 1503 1503 1503 1503 1503 1504 1503 1497 1495 1496 1496 1496 1496 1497 1498 1499 1500 1501 1501 1503 1504 1505 1507 1509 1510 1511 1515 1519 1520 1519 1521 1523 1519 1513 1513 1515 1515 1516 1519 1518 1518 1520 1523 1522 1515 1512 1511 1508 1509 1511 1510 1511 1513 1513 1507 1508 1517 1515 1511 1513 1510 1507 1508 1508 1508 1509 1509 1510 1511 1513 1515 1516 1517 1519
1503 1502 1502 1502 1502 1501 1502 1501 1501 1502 1502 1502 1503 1502 1503 1503 1503 1503 1503 1507 1506 1498 1495 1497 1496 1496 1496 1497 1498 1499 1502 1502 1501 1503 1504 1505 1507 1508 1511 1513 1513 1517 1518 1518 1521 1521 1516 1512 1512 1514 1515 1515 1518 1518 1514 1515 1524 1525 1509 1500 1504 1506 1507 1509 1511 1514 1518 1518 1508 1507 1519 1520 1512 1513 1510 1507 1508 1508 1507 1508 1507 1508 1509 1510 1512 1513 1515 1517
1501 1501 1500 1500 1500 1500 1501 1500 1501 1502 1501 1503 1502 1502 1503 1502 1503 1503 1504 1513 1511 1498 1495 1497 1496 1496 1496 1497 1497 1500 1506 1504 1500 1503 1503 1505 1507 1508 1512 1514 1514 1516 1514 1517 1525 1520 1513 1513 1513 1513 1514 1516 1518 1516 1511 1511 1521 1519 1502 1497 1503 1503 1506 1507 1509 1513 1513 1512 1511 1508 1513 1519 1515 1512 1510 1507 1509 1509 1507 1506 1506 1506 1507 1508 1510 1511 1513 1515
1500 1499 1499 1499 1499 1499 1500 1500 1501 1501 1502 1503 1502 1503 1503 1502 1504 1502 1508 1521 1513 1495 1494 1495 1494 1495 1495 1497 1497 1499 1502 1500 1501 1504 1502 1505 1508 1507 1511 1512 1513 1514 1511 1517 1526 1518 1511 1513 1513 1512 1515 1516 1513 1509 1506 1508 1515 1508 1494 1496 1501 1500 1503 1504 1506 1511 1510 1511 1516 1512 1512 1520 1518 1510 1510 1509 1510 1511 1506 1503 1503 1502 1504 1505 1507 1509 1511 1513
1499 1498 1498 1498 1498 1499 1499 1500 1500 1500 1502 1502 1502 1503 1502 1503 1503 1503 1512 1519 1506 1492 1493 1494 1494 1496 1495 1497 1498 1497 1498 1499 1501 1503 1502 1505 1507 1507 1510 1510 1510 1512 1511 1514 1519 1515 1511 1510 1509 1510 1513 1511 1505 1502 1503 1507 1508 1499 1493 1497 1499 1501 1502 1503 1506 1508 1510 1516 1516 1511 1512 1520 1518 1511 1512 1513 1511 1509 1502 1498 1498 1498 1501 1502 1503 1507 1508 1511
1497 1497 1497 1497 1497 1498 1498 1499 1499 1500 1501 1502 1503 1503 1502 1503 1504 1510 1520 1514 1499 1493 1493 1493 1495 1495 1495 1498 1500 1498 1499 1499 1499 1501 1503 1505 1506 1506 1508 1508 1508 1511 1512 1513 1514 1512 1508 1507 1506 1506 1505 1502 1499 1499 1500 1501 1499 1495 1498 1500 1500 1502 1501 1504 1508 1506 1515 1521 1514 1511 1512 1516 1519 1513 1511 1509 1501 1497 1496 1495 1495 1495 1497 1499 1500 1503 1506 1508
1496 1496 1496 1496 1497 1497 1498 1498 1499 1500 1501 1502 1503 1502 1503 1504 1507 1517 1518 1503 1495 1496 1493 1494 1496 1494 1496 1499 1501 1500 1499 1500 1499 1501 1504 1505 1506 1508 1508 1510 1511 1514 1517 1516 1513 1511 1508 1507 1505 1499 1496 1496 1497 1498 1497 1496 1496 1498 1502 1503 1505 1508 1505 1508 1510 1509 1523 1526 1513 1512 1512 1515 1521 1510 1500 1498 1490 1488 1491 1491 1491 1492 1493 1495 1497 1500 1503 1506
1495 1495 1495 1495 1496 1496 1497 1498 1498 1499 1500 1501 1502 1502 1504 1509 1512 1515 1508 1497 1498 1499 1492 1495 1496 1494 1497 1499 1500 1501 1501 1502 1500 1501 1504 1506 1509 1509 1509 1512 1513 1520 1526 1522 1517 1513 1508 1504 1501 1496 1493 1494 1498 1502 1500 1497 1497 1501 1504 1506 1514 1523 1524 1525 1524 1524 1530 1523 1511 1512 1512 1515 1517 1501 1490 1490 1486 1485 1486 1485 1486 1487 1489 1492 1494 1497 1500 1503
1494 1494 1494 1495 1495 1496 1496 1496 1497 1499 1500 1501 1502 1501 1506 1514 1513 1506 1500 1497 1498 1494 1490 1492 1493 1494 1498 1500 1501 1501 1501 1503 1501 1502 1503 1505 1509 1510 1509 1510 1510 1517 1524 1523 1521 1518 1512 1504 1499 1498 1495 1491 1495 1503 1506 1503 1500 1502 1504 1508 1518 1531 1540 1543 1539 1538 1534 1520 1510 1511 1513 1515 1510 1495 1487 1486 1483 1481 1481 1482 1483 1484 1486 1488 1490 1494 1497 1500
1493 1493 1494 1494 1494 1495 1495 1496 1498 1499 1500 1501 1502 1503 1510 1515 1507 1498 1497 1496 1493 1490 1489 1491 1493 1496 1498 1500 1501 1499 1501 1503 1501 1502 1505 1506 1511 1512 1510 1509 1508 1511 1515 1520 1522 1520 1522 1516 1502 1498 1497 1492 1492 1496 1499 1499 1500 1501 1500 1504 1511 1519 1531 1538 1536 1534 1530 1521 1514 1512 1514 1514 1507 1493 1484 1481 1480 1480 1479 1480 1481 1483 1484 1486 1488 1492 1495 1497
1492 1493 1493 1493 1494 1495 1495 1497 1498 1499 1501 1501 1502 1508 1513 1510 1502 1498 1496 1492 1490 1490 1490 1490 1493 1499 1501 1500 1499 1496 1499 1502 1501 1502 1506 1507 1511 1511 1509 1508 1507 1509 1513 1521 1521 1518 1525 1519 1499 1492 1492 1490 1491 1489 1488 1494 1501 1502 1499 1503 1508 1506 1510 1523 1527 1525 1524 1524 1520 1515 1511 1505 1497 1487 1480 1480 1481 1479 1479 1479 1480 1482 1483 1485 1488 1490 1492 1494
1492 1492 1493 1493 1494 1495 1496 1498 1498 1499 1501 1500 1505 1511 1508 1500 1496 1495 1491 1487 1488 1489 1491 1495 1495 1500 1505 1502 1500 1497 1496 1499 1501 1504 1506 1507 1508 1507 1506 1504 1503 1505 1509 1516 1518 1517 1523 1515 1495 1491 1490 1486 1489 1487 1485 1492 1500 1503 1503 1504 1503 1496 1498 1514 1525 1523 1525 1530 1525 1517 1510 1500 1494 1489 1480 1480 1481 1479 1480 1480 1480 1482 1482 1484 1485 1486 1489 1491
1492 1492 1493 1493 1494 1495 1496 1498 1499 1500 1500 1501 1506 1507 1501 1494 1490 1489 1486 1484 1486 1486 1491 1499 1498 1498 1503 1503 1501 1499 1497 1499 1502 1504 1507 1509 1506 1502 1502 1500 1498 1501 1502 1506 1511 1512 1516 1512 1496 1493 1493 1486 1484 1485 1484 1485 1490 1500 1506 1501 1496 1497 1499 1509 1522 1525 1531 1536 1526 1517 1515 1509 1505 1500 1485 1480 1482 1481 1482 1481 1481 1483 1483 1483 1483 1484 1486 1487
1492 1493 1493 1494 1495 1495 1497 1498 1499 1500 1500 1503 1506 1503 1497 1492 1486 1484 1484 1483 1485 1486 1490 1497 1495 1493 1498 1501 1500 1498 1498 1502 1504 1505 1507 1509 1504 1496 1496 1498 1495 1495 1495 1500 1507 1506 1511 1515 1502 1492 1494 1489 1483 1487 1491 1487 1485 1492 1497 1493 1496 1508 1512 1512 1520 1527 1534 1540 1530 1519 1518 1513 1508 1501 1488 1483 1482 1481 1483 1483 1482 1482 1482 1482 1482 1483 1485 1486
1492 1493 1494 1495 1496 1496 1497 1499 1500 1501 1501 1504 1506 1501 1495 1491 1484 1481 1482 1482 1484 1486 1489 1491 1491 1492 1495 1496 1496 1496 1497 1501 1504 1505 1505 1507 1503 1493 1491 1493 1492 1492 1493 1496 1504 1505 1506 1516 1510 1494 1490 1490 1487 1490 1497 1496 1490 1488 1491 1493 1497 1506 1511 1511 1515 1519 1525 1536 1535 1525 1518 1508 1498 1492 1486 1483 1481 1480 1483 1483 1481 1481 1480 1480 1481 1482 1484 1486
1492 1493 1496 1497 1497 1497 1498 1499 1500 1501 1502 1504 1504 1499 1493 1489 1483 1478 1479 1480 1481 1483 1485 1486 1487 1491 1492 1492 1494 1494 1495 1498 1500 1502 1503 1503 1502 1493 1488 1489 1489 1491 1493 1495 1501 1503 1504 1514 1515 1499 1490 1494 1494 1492 1494 1495 1494 1494 1497 1501 1501 1501 1504 1507 1510 1511 1515 1525 1533 1533 1524 1504 1487 1483 1480 1479 1477 1478 1480 1480 1479 1478 1477 1478 1480 1481 1483 1485
1493 1495 1498 1498 1498 1499 1499 1500 1501 1501 1502 1502 1501 1497 1493 1489 1483 1477 1476 1477 1477 1477 1479 1481 1483 1485 1488 1490 1492 1491 1494 1497 1497 1499 1500 1499 1500 1495 1486 1484 1486 1490 1495 1499 1500 1501 1504 1510 1513 1506 1499 1500 1495 1488 1487 1489 1490 1493 1495 1498 1500 1500 1504 1514 1519 1513 1510 1516 1523 1529 1525 1502 1481 1478 1478 1476 1476 1476 1476 1476 1476 1476 1476 1477 1479 1481 1483 1484
1493 1497 1499 1499 1500 1500 1500 1501 1501 1502 1502 1501 1498 1494 1490 1488 1483 1477 1474 1474 1475 1474 1475 1478 1479 1481 1483 1486 1487 1488 1491 1496 1497 1497 1497 1494 1495 1492 1484 1481 1484 1486 1491 1498 1498 1495 1498 1505 1510 1508 1503 1498 1491 1484 1485 1486 1486 1488 1492 1493 1495 1498 1502 1514 1521 1514 1510 1515 1516 1521 1523 1501 1480 1477 1477 1475 1475 1474 1474 1474 1474 1475 1476 1477 1479 1480 1483 1484
1495 1498 1499 1500 1501 1501 1501 1502 1502 1502 1501 1497 1494 1491 1488 1486 1483 1478 1475 1474 1474 1474 1475 1476 1476 1478 1480 1481 1483 1486 1488 1493 1496 1494 1493 1492 1490 1485 1482 1481 1483 1485 1488 1494 1496 1493 1497 1505 1509 1508 1502 1493 1486 1483 1483 1484 1485 1489 1492 1491 1493 1496 1496 1501 1507 1506 1508 1513 1513 1520 1523 1501 1479 1477 1476 1474 1474 1474 1474 1474 1474 1475 1476 1477 1479 1480 1482 1484
1497 1499 1500 1500 1501 1501 1502 1503 1503 1503 1500 1495 1493 1489 1485 1484 1481 1478 1476 1474 1473 1473 1474 1475 1474 1475 1476 1476 1480 1484 1486 1491 1494 1491 1490 1492 1488 1482 1480 1479 1481 1484 1486 1489 1491 1492 1498 1506 1510 1514 1515 1506 1499 1497 1493 1488 1488 1492 1494 1492 1490 1492 1495 1497 1500 1503 1508 1509 1507 1515 1518 1498 1480 1478 1476 1474 1475 1475 1475 1474 1474 1475 1476 1477 1479 1480 1481 1483
1498 1500 1501 1502 1502 1502 1502 1503 1503 1503 1500 1497 1494 1489 1485 1482 1478 1477 1476 1474 1472 1472 1474 1475 1473 1473 1474 1475 1479 1483 1484 1487 1491 1491 1490 1490 1486 1481 1480 1480 1482 1482 1482 1483 1483 1486 1496 1504 1506 1513 1523 1523 1519 1514 1506 1497 1494 1494 1494 1494 1492 1492 1494 1497 1501 1506 1510 1510 1506 1507 1505 1492 1481 1479 1478 1477 1477 1476 1475 1475 1474 1475 1477 1478 1479 1480 1481 1481
1498 1500 1503 1503 1503 1503 1502 1501 1502 1502 1501 1499 1496 1490 1488 1486 1479 1475 1475 1475 1474 1473 1474 1475 1474 1473 1475 1477 1482 1487 1486 1484 1487 1489 1490 1490 1486 1482 1480 1481 1481 1480 1480 1481 1481 1485 1495 1500 1500 1503 1509 1511 1509 1504 1499 1497 1498 1497 1495 1495 1494 1493 1493 1496 1501 1504 1504 1506 1506 1499 1493 1490 1486 1481 1480 1479 1478 1478 1476 1475 1476 1476 1477 1478 1479 1480 1481 1481
1498 1501 1503 1503 1504 1504 1502 1501 1501 1501 1500 1500 1498 1493 1492 1489 1483 1478 1476 1476 1476 1474 1475 1477 1476 1478 1481 1481 1485 1490 1490 1487 1488 1489 1491 1491 1486 1482 1480 1479 1479 1480 1480 1480 1482 1486 1494 1499 1499 1500 1499 1497 1496 1494 1494 1497 1498 1497 1496 1496 1495 1494 1493 1494 1496 1494 1494 1501 1503 1492 1488 1492 1489 1482 1481 1481 1479 1479 1477 1476 1477 1477 1478 1479 1479 1480 1481 1482
1499 1501 1502 1503 1504 1504 1502 1500 1500 1500 1499 1499 1498 1495 1494 1491 1487 1485 1481 1478 1477 1476 1478 1482 1482 1482 1483 1483 1485 1491 1493 1492 1493 1493 1492 1491 1487 1484 1482 1479 1479 1480 1480 1482 1483 1485 1493 1499 1498 1498 1497 1493 1493 1494 1495 1496 1496 1496 1497 1497 1495 1494 1493 1492 1490 1487 1488 1493 1493 1488 1489 1491 1487 1482 1482 1480 1479 1479 1478 1477 1478 1478 1478 1479 1479 1480 1481 1481
1500 1501 1502 1502 1502 1502 1502 1500 1500 1500 1499 1497 1497 1496 1495 1493 1491 1489 1485 1482 1482 1481 1482 1488 1490 1486 1484 1483 1485 1492 1496 1496 1498 1497 1493 1492 1491 1490 1489 1487 1484 1482 1481 1484 1484 1485 1492 1498 1498 1498 1498 1493 1493 1496 1495 1494 1494 1494 1496 1496 1495 1493 1491 1489 1489 1488 1486 1487 1488 1489 1490 1488 1485 1483 1481 1479 1479 1479 1478 1478 1478 1478 1479 1478 1479 1480 1480 1481
1501 1502 1502 1502 1502 1501 1501 1500 1499 1499 1497 1496 1497 1497 1496 1495 1494 1491 1488 1488 1490 1488 1486 1490 1493 1489 1487 1485 1486 1491 1494 1493 1496 1495 1492 1493 1493 1492 1493 1492 1488 1485 1484 1486 1486 1486 1491 1498 1498 1498 1499 1496 1493 1494 1494 1493 1493 1494 1495 1494 1492 1492 1490 1490 1492 1490 1487 1489 1490 1487 1487 1488 1485 1483 1481 1479 1479 1479 1479 1479 1479 1479 1479 1479 1479 1480 1480 1481
1502 1503 1502 1502 1502 1502 1501 1500 1499 1499 1499 1499 1500 1498 1497 1496 1496 1494 1492 1491 1492 1492 1490 1491 1492 1490 1489 1488 1489 1491 1491 1490 1491 1490 1488 1490 1491 1489 1490 1490 1488 1488 1488 1488 1489 1488 1491 1497 1498 1498 1502 1501 1495 1493 1495 1493 1492 1494 1496 1495 1495 1495 1494 1494 1494 1491 1488 1489 1489 1487 1490 1492 1487 1482 1481 1480 1479 1479 1480 1480 1480 1481 1480 1481 1480 1480 1480 1482
1503 1503 1503 1503 1503 1502 1502 1502 1500 1500 1501 1502 1502 1499 1498 1498 1495 1494 1494 1493 1492 1492 1492 1491 1490 1490 1491 1492 1491 1491 1490 1489 1489 1488 1487 1488 1487 1485 1486 1486 1486 1487 1488 1489 1491 1491 1492 1496 1497 1500 1505 1503 1497 1497 1495 1492 1498 1504 1501 1498 1498 1497 1495 1495 1494 1490 1487 1487 1489 1491 1493 1491 1485 1482 1482 1482 1481 1481 1481 1481 1482 1482 1481 1481 1481 1480 1481 1482